This is the latest recevied weather packets stored in our database for station/object N9XTN-3. If no packets are shown the sender has not sent any weather packets the latest 10 day(s).
| Time | Temp. | Humidity | Pressure | Rain* | Wind** | Luminosity | Snow |
|---|---|---|---|---|---|---|---|
| 1777851636 | 24.44° C | 27% | 1008.3 hPa | 0 mm | - | - | - |
| 1777851316 | 24.44° C | 27% | 1008.3 hPa | 0 mm | - | - | - |
| 1777850416 | 24.44° C | 27% | 1008.3 hPa | 0 mm | - | - | - |
| 1777849216 | 24.44° C | 27% | 1008.4 hPa | 0 mm | - | - | - |
| 1777848616 | 24.44° C | 28% | 1008.6 hPa | 0 mm | - | - | - |
| 1777847416 | 24.44° C | 29% | 1008.6 hPa | 0 mm | - | - | - |
| 1777847116 | 24.44° C | 29% | 1008.6 hPa | 0 mm | - | - | - |
| 1777846536 | 25° C | 32% | 1008.9 hPa | 0 mm | - | - | - |
| 1777845916 | 24.44° C | 34% | 1009 hPa | 0 mm | - | - | - |
| 1777844416 | 24.44° C | 33% | 1009 hPa | 0 mm | - | - | - |
| 1777842916 | 23.89° C | 31% | 1009.5 hPa | 0 mm | - | - | - |
| 1777841116 | 23.89° C | 33% | 1010 hPa | 0 mm | - | - | - |
| 1777839936 | 23.89° C | 31% | 1010.2 hPa | 0 mm | - | - | - |
| 1777838116 | 23.33° C | 30% | 1010.6 hPa | 0 mm | - | - | - |
| 1777837816 | 23.33° C | 31% | 1010.7 hPa | 0 mm | - | - | - |
| 1777837216 | 22.78° C | 31% | 1010.7 hPa | 0 mm | - | - | - |
| 1777835436 | 22.22° C | 33% | 1011.1 hPa | 0 mm | - | - | - |
| 1777834516 | 22.78° C | 31% | 1011.1 hPa | 0 mm | - | - | - |
| 1777831816 | 22.22° C | 32% | 1011.3 hPa | 0 mm | - | - | - |
| 1777831516 | 22.22° C | 33% | 1011.4 hPa | 0 mm | - | - | - |
| 1777829716 | 21.67° C | 33% | 1011.8 hPa | 0 mm | - | - | - |
| 1777829116 | 21.11° C | 32% | 1011.9 hPa | 0 mm | - | - | - |
| 1777828216 | 21.11° C | 33% | 1012 hPa | 0 mm | - | - | - |
| 1777825816 | 21.11° C | 34% | 1012 hPa | 0 mm | - | - | - |
| 1777823416 | 19.44° C | 41% | 1012.2 hPa | 0 mm | - | - | - |
* Rain latest hour (hover to see other rain measurements)
** Current wind speed in m/s (hover to see current wind gust speed)